{"data":{"norad_id":58705,"intl_designator":"2024-002A","name":"STARLINK-11072 [DTC]","alt_names":[],"object_type":"PAYLOAD","status":"ACTIVE","operator":null,"country":"US","launch_date":"2024-01-03","launch_site_code":"AFWTR","launch_vehicle":null,"mission":null,"orbit_class":"UNKNOWN","rcs_meters":null,"size_class":null,"mass_kg":null,"dimensions":null,"purposes":["comms"],"wikipedia_slug":null,"has_3d_model":false,"image_url":null,"decayed_at":null,"tle_current":{"epoch":"2026-05-24T18:00:55.581120Z","epoch_age_seconds":106667,"freshness":"FRESH","line1":"1 58705U 24002A   26144.75064330  .00000644  00000+0  10172-4 0  9996","line2":"2 58705  53.1592 259.0620 0001026  92.5372 267.5764 15.69704646138381","mean_motion":15.69704646,"eccentricity":0.0001026,"inclination_deg":53.1592,"raan_deg":259.062,"arg_perigee_deg":92.5372,"mean_anomaly_deg":267.5764,"bstar":1.0172e-5,"rev_number":13838,"period_min":91.737003115171,"perigee_km":359.05076516919,"apogee_km":360.43337795467,"semimajor_km":6737.8790715619,"source":"CELESTRAK","updated_at":"2026-05-25T13:38:18.714475Z"}}}